Regional Weather Roundup
Issued by NWS San Diego, CA

Home | Current Version | Previous Version | Text Only | Print | Product List | Glossary On
Versions: 1 2 3 4 5 6 7 8 9 10 11 12 13 14 15 16 17 18 19 20 21 22 23 24 25 26 27 28 29 30 31 32 33 34 35 36 37 38 39 40 41 42 43 44 45 46 47 48 49 50
000
ASUS46 KSGX 242111
RWRSGX

SAN DIEGO HOURLY WEATHER ROUNDUP
NATIONAL WEATHER SERVICE SAN DIEGO CA
200 PM PDT SAT JUN 24 2017

NOTE: "FAIR" INDICATES FEW OR NO CLOUDS BELOW 12,000 FEET WITH NO
SIGNIFICANT WEATHER AND/OR OBSTRUCTIONS TO VISIBILITY.

CAZ042-043-060-061-PZZ750-775-242200-

GREATER SAN DIEGO AREA

CITY           SKY/WX    TMP DP  RH WIND       PRES   REMARKS
SAN DIEGO AP   MOSUNNY   74  61  63 W9        29.91F
NATIONAL CITY    N/A     72  63  73 W10       29.91F
CHULA VISTA      N/A     73  65  74 W7        29.83F
IMPERIAL BEACH SUNNY    N/A N/A N/A MISG      29.91F
BROWN FIELD    SUNNY     74  61  63 VRB7      29.90F
MIRAMAR MCAS   MOSUNNY   76  59  55 W8        29.90F
MONTGOMERY FLD SUNNY     76  60  57 W10       29.90F
GILLESPIE FLD  SUNNY     84  61  45 W9        29.88F

$$

NORTH SAN DIEGO COUNTY

CITY           SKY/WX    TMP DP  RH WIND       PRES   REMARKS
CAMP PENDLETON SUNNY     72  63  73 SW10G16   29.88F
OCEANSIDE AP   SUNNY     72  62  71 W12       29.89F
OCEANSIDE HBR    N/A     67  62  85 W5        29.93S
VISTA            N/A     74  64  69 W8        29.87F
CARLSBAD       SUNNY     68  61  78 SW8       29.90S
DEL MAR          N/A     68  62  79 W2        29.93S
LA JOLLA SCRIP   N/A     65  62  89 SW3       29.90F
FALLBROOK        N/A     81  65  59 SW3       29.89F
ESCONDIDO        N/A     86  65  48 SW2       29.89S
SAN MARCOS       N/A     75  63  66 W14       29.90F
POWAY            N/A     83  64  51 CALM      29.89F

$$

EAST SAN DIEGO COUNTY

CITY           SKY/WX    TMP DP  RH WIND       PRES   REMARKS
RAMONA         SUNNY     88  63  43 NW9       29.91S
SANTEE LAKES     N/A     83  64  54 SW5       29.86F
LA MESA          N/A     78  63  58 W7        29.83S
JAMUL            N/A     83  66  55 CALM      29.88S
DESCANSO N       N/A     87  62  43 W8        29.75S
CAMPO            N/A     92  60  34 SW17      29.91S

$$

ORANGE COUNTY AND THE LOS ANGELES BASIN

CITY           SKY/WX    TMP DP  RH WIND       PRES   REMARKS
JOHN WAYNE AP  MOSUNNY   72  60  66 SW10      29.89F
LAGUNA BEACH     N/A     70  63  77 S5        29.86S
LAKE FOREST FR   N/A     84  60  44 W5        29.77S
HUNTINGTON BCH   N/A     69  63  80 W12       29.91F
LOS ALAMITOS   MOSUNNY   73  62  66 SW12      29.89S
FULLERTON      MOSUNNY   76  62  62 VRB6      29.88R
LONG BEACH     MOSUNNY   76  58  53 S8        29.88F
L.A. AP        PTSUNNY   70  61  73 W13       29.90S
L.A. DOWNTOWN  MOSUNNY   76  61  59 CALM      29.88F

$$

THE INLAND EMPIRE

CITY           SKY/WX    TMP DP  RH WIND       PRES   REMARKS
CORONA         SUNNY     85  64  49 W14       29.86F
CHINO          MOSUNNY   91  61  36 W12       29.87F
ONTARIO        MOSUNNY   89  60  37 W13       29.87F
SAN BERNARDINO MOSUNNY   97  55  24 SW7       29.87F HAZE    HX  95
RIVERSIDE AP   SUNNY     90  62  39 VRB6      29.86F
MORENO VALLEY    N/A     96  65  35 W7        28.02R HX  99
MARCH ARB      SUNNY     92  60  34 NW10G17   29.89S
HORSETHIEF CYN   N/A     91  56  30 NE7       29.83F
PERRIS           N/A     92  62  36 W6        29.87S
HEMET EAST       N/A     94  52  23 W7        29.87S
FRENCH VALLEY  FAIR      88  61  40 S9        29.89F
TEMECULA         N/A     88  63  42 SW6       29.90F

$$

SAN BERNARDINO AND RIVERSIDE COUNTY MOUNTAINS

CITY           SKY/WX    TMP DP  RH WIND       PRES   REMARKS
BIG BEAR AP    LGT RAIN  75  36  23 NE3G20    30.31R
ANGELUS OAKS     N/A     91  57  31 CALM      29.66F
PINE COVE        N/A     85  50  29 W3        29.77F

$$

SOUTHERN DESERT INCLUDING THE COACHELLA VALLEY

CITY           SKY/WX    TMP DP  RH WIND       PRES   REMARKS
PALM SPRINGS   SUNNY    121  41   7 W12       29.68F HX 113
THOUSAND PALMS   N/A    116  53  12 S5        29.63F HX 114
PALM DESERT      N/A    117  54  13 CALM      30.07S HX 115
THERMAL        SUNNY    112  61  19 SE7       29.62F HX 114
BLYTHE         MOSUNNY  115  44   9 S8        29.66F HX 109
IMPERIAL AP    MOSUNNY  111  55  16 CALM      29.64F HX 110
EL CENTRO NAS  SUNNY    111  53  14 S5        29.66F HX 109
YUMA AZ        SUNNY    112  51  13 SW9       29.67F HX 109
MEXICALI       SUNNY    111  48  12 SE7       29.67F HX 107

$$

UPPER DESERT

CITY           SKY/WX    TMP DP  RH WIND       PRES   REMARKS
VICTORVILLE AP MOSUNNY  106  30   7 NW7       29.93F HX  98
HESPERIA         N/A    105  40  11 N3        29.83F HX  99
PALMDALE       MOSUNNY  107  35   8 W8G18     29.92F HX 100
LANCASTER      MOSUNNY  109  34   7 W12G22    29.89F HX 102
EDWARDS AFB    PTSUNNY  106  26   6 NE8       29.87F HX  98
DAGGETT        SUNNY    109  30   6 VRB3      29.83F HX 101
29 PALMS N     MOSUNNY  112  20   4 CALM      29.89F HX 103
NEEDLES        MOSUNNY  119  22   3 NE8       29.70F HX 107

$$

REGIONAL REPORTS

CITY           SKY/WX    TMP DP  RH WIND       PRES   REMARKS
SANTA BARBARA  SUNNY     71  58  63 W8        29.89S
SANDBERG       MOSUNNY   95  44  17 NW17      30.14S
LAS VEGAS NV   MOSUNNY  110   8   2 VRB5      29.85F HX 100
PHOENIX AZ     MOSUNNY  111  42  10 W10       29.71F HX 105
TIJUANA        SUNNY     75  61  60 NW15      29.92F
ENSENADA NW      N/A     69  32  25 W20       29.84F

$$

OFFSHORE ISLANDS

CITY           SKY/WX    TMP DP  RH WIND       PRES   REMARKS
CATALINA ARPT  SUNNY     67  58  72 W12       29.94F
SAN NICOLAS IS FAIR      67  67 100 W24G31    29.93S

$$

MARINE AND OFFSHORE BUOY REPORTS

STATION/POSITION SKY/WX   TEMP    WIND        PRES    VSBY  SWELL
                          AIR SEA DIR/SP/G                  HT/PER/DIR
                          (F)     (DEG/KT/KT) (MB)    (MI)  (FT/S/D)
TANNER BANKS               60 61  310/ 16/ 19 1014.1          5/220/14
S CLEMENTE BASIN              64  300/ 14/ 17 1013.1F         3/170/14
SAN NICOLAS IS.               61                N/A           3/180/14
SO. S. ROSA ISLA           59 60  300/ 19/ 23 1013.4F         5/210/14
W. S. BARBARA CH           59 60  300/ 21/ 25 1013.1F         3/240/15
M. S. BARBARA CH           61 64  270/ 16/ 17 1013.4R         2/260/ 9
S. MONICA BASIN            64 67  270/ 14/ 16 1012.4F         3/160/15
S PEDRO CHANNEL               63                N/A           2/170/13
CMP PENDLETON NS              65                N/A           3/210/15
OCEANSIDE OFFSHR              66                N/A           3/200/14
TORREY PINES OTR              67                N/A           3/200/14
SAN DIEGO BAY                 71              1012.8F
POINT LOMA SOUTH              68                N/A           3/190/14

$$





USA.gov is the U.S. government's official web portal to all federal, state and local government web resources and services.